www.pogodaiklimat.ru

Погода и климат >> Архив погоды >> Россия >> Ставропольский край >> Зеленокумск


ПОГОДА в Зеленокумске

  • Прогноз погоды в Зеленокумске
  • Монитор погоды в Зеленокумске

АРХИВ ПОГОДЫ в Зеленокумске

Время (UTC), дата Ветер
(напр.,м/с)
 
Видим.   Явления Облачность Т
(С)
Тd
(С)
f
(%)
Тe
(С)
Тes
(С)
Комфортность P
(гПа)
Po
(гПа)
Тmin
(С)
Tmax
(С)
R
(мм)
R24
(мм)
S
(см)
18 16.07 СЗ 4 20 км 5/3 600 м
[Sc Ac trans]
+22.8 +16.4 67 +27 +27 душно 1007.9 990.9
21 16.07 З 1 20 км 3/0 2000 м
[Ac trans]
+18.7 +16.7 88 +21 +21 комфорт 1009.2 992.0
00 17.07 З 1 20 км 3/0 2000 м
[Ac trans]
+17.9 +16.1 89 +19 +19 1009.7 992.4
03 17.07 ЮЗ 1 20 км 8/6 600 м
[Sc Ac trans]
+18.5 +15.5 83 +20 +21 1010.6 993.4 +17.3
06 17.07 Ю 2 20 км 8/6 600 м
[Sc Ac trans]
+23.0 +15.6 63 +27 +30 душно 1010.2 993.2
09 17.07 З 2 20 км 6/3 600 м
[Cu hum Ac trans]
+27.1 +15.1 48 +30 +40 душно 1008.0 991.3
12 17.07 В 1 20 км 8/3 600 м
[Cu hum Ac lent]
+29.6 +14.7 40 +32 +36 душно 1006.8 990.3
15 17.07 Ю 1 20 км 9/5 600 м
[Sc Ac trans]
+28.4 +14.8 43 +31 +31 душно 1006.6 990.0 +30.2
18 17.07 Ю 1 20 км 10/6 600 м
[Sc Ac und]
+24.7 +16.0 58 +28 +28 душно 1007.4 990.6
21 17.07 штиль 0 20 км 8/0 2000 м
[Ac trans]
+21.2 +16.9 76 +25 +25 комфорт 1006.8 989.8
00 18.07 штиль 0 20 км 3/0 2000 м
[Ac trans]
+19.3 +16.8 85 +21 +21 комфорт 1006.5 989.4
03 18.07 СВ 1 20 км 6/0 2000 м
[Ac lent]
+21.3 +15.3 69 +24 +25 комфорт 1007.0 990.0 +17.1
06 18.07 В 3 20 км 5/0 2000 м
[Ac lent Ci fib]
+28.1 +15.6 47 +31 +38 душно 1005.8 989.2
09 18.07 В 3
{10}
20 км 8/4 600 м
[Cu med, cong Ac trans]
+31.2 +15.9 40 +34 +40 душно 1004.7 988.3
12 18.07 В 1 20 км 10/6 600 м
[Sc diur, vesp Ac und]
+30.6 +16.8 44 +34 +36 очень
душно
1005.0 988.5
15 18.07 штиль 0 20 км 10/8 600 м
[Sc Ac und]
+30.1 +17.0 45 +34 +34 очень
душно
1005.4 989.0 +31.7
18 18.07 ЮЗ 1
{11}
10 км гроза, ливневой дождь 10/8 600 м
[Cb cap Ac und]
+20.4 +18.5 89 +25 +25 комфорт 1010.7 993.7
21 18.07 СЗ 1 4000 м дымка {гроза, ливн. осадки} 10/5 600 м
[Cb cap Ac und]
+19.2 +18.0 93 +22 +22 комфорт 1010.0 992.8
00 19.07 З 1 4000 м дымка {гроза, ливн. осадки} 6/3 600 м
[Sc diur, vesp Ac trans]
+18.2 +17.6 96 +20 +20 1011.2 994.0
03 19.07 З 1 4000 м дымка 8/0 2000 м
[Ac trans]
+18.7 +17.5 93 +21 +22 комфорт 1012.9 995.7 +18.0 3
06 19.07 СЗ 1 20 км 8/0 2000 м
[Ac trans]
+22.2 +17.8 76 +27 +34 душно 1013.2 996.2
09 19.07 СВ 2 20 км 8/3 600 м
[Cu med, cong Ac trans]
+27.7 +18.1 56 +32 +40 очень
душно
1012.3 995.6
12 19.07 С 1 20 км 8/4 600 м
[Sc diur, vesp Ac trans]
+29.9 +17.5 47 +34 +39 очень
душно
1011.6 995.0
15 19.07 штиль 0 20 км 10/8 600 м
[Sc Ac und]
+27.9 +16.8 51 +32 +32 душно 1012.1 995.4 +30.4
18 19.07 СЗ 3
{12}
10 км слаб. ливневой дождь 10/8 600 м
[Cb cap Ac und]
+18.9 +17.8 93 +21 +21 комфорт 1015.9 998.7
21 19.07 СЗ 1 4000 м дымка {гроза, ливн. осадки} 10/4 600 м
[Sc diur, vesp Ac und]
+19.1 +18.7 98 +22 +22 комфорт 1016.0 998.7
00 20.07 штиль 0 4000 м дымка {гроза, ливн. осадки} 10/5 600 м
[Sc Ac und]
+19.5 +19.1 98 +22 +22 комфорт 1016.7 999.5
03 20.07 штиль 0 4000 м дымка 9/6 600 м
[Sc Ac trans]
+20.3 +19.7 96 +24 +24 комфорт 1018.0 1000.8 +18.7 2
06 20.07 штиль 0 20 км 6/3 600 м
[Sc Ac trans]
+23.8 +19.5 77 +29 +37 душно 1018.1 1001.1
09 20.07 В 1 20 км 5/3 600 м
[Cu med, cong Ci fib]
+28.7 +17.6 51 +33 +47 очень
душно
1017.1 1000.4
12 20.07 С 1 20 км 4/4 600 м
[Cu med, cong]
+30.5 +17.8 47 +35 +43 очень
душно
1016.3 999.7
15 20.07 штиль 0 20 км 9/6 600 м
[Sc Ac trans]
+29.2 +17.8 50 +34 +34 очень
душно
1016.1 999.4 +31.2
18 20.07 штиль 0 20 км 9/4 600 м
[Sc Ac trans]
+24.4 +19.2 73 +29 +29 душно 1016.6 999.6
21 20.07 штиль 0 20 км 8/0 2000 м
[Ac trans]
+22.5 +19.7 84 +29 +29 очень
душно
1016.6 999.5
00 21.07 штиль 0 4000 м дымка 5/0 2000 м
[Ac trans]
+21.3 +19.9 92 +26 +26 душно 1015.9 998.8
03 21.07 штиль 0 20 км 5/0 2000 м
[Ac trans]
+22.9 +19.8 83 +30 +31 очень
душно
1015.6 998.6 +20.5
06 21.07 ЮВ 4 20 км 3/1 600 м
[Cu hum Ci fib]
+30.6 +18.5 48 +35 +42 очень
душно
1014.3 997.7
09 21.07 В 4
{10}
20 км 8/4 600 м
[Cu hum Ci]
+33.6 +16.3 36 +36 +43 очень
душно
1012.4 996.0
12 21.07 В 3
{11}
20 км 10/3 600 м
[Cu hum Ci]
+34.9 +14.7 30 +36 +42 душно 1010.6 994.3
15 21.07 В 3
{10}
20 км 10/5 600 м
[Sc diur, vesp Ac cuf Ci]
+32.7 +15.3 35 +35 +35 душно 1010.3 993.9 +35.6
18 21.07 В 3 20 км 3/0
[Ac cuf]
+28.5 +14.9 44 +31 +31 душно 1011.4 994.7
21 21.07 ЮВ 2 10 км гроза, ливневой дождь 10/8 600 м
[Cb cap Ac cuf]
+23.1 +18.2 74 +29 +29 очень
душно
1011.9 994.9
00 22.07 З 1 20 км гроза без осадков {ливн. осадки} 10/6 600 м
[Cb cap Ac cuf]
+22.0 +19.1 84 +27 +27 душно 1013.9 996.8
03 22.07 СЗ 2 20 км гроза без осадков {ливн. осадки} 9/8 600 м
[Cb cap Ac cuf Ci ing]
+20.1 +17.7 86 +24 +24 комфорт 1014.6 997.4 +20.1
06 22.07 СЗ 2 20 км {гроза, ливн. осадки} 8/3 600 м
[Cu med, cong Ac lent]
+23.6 +17.2 67 +27 +31 жарко 1014.5 997.5
09 22.07 СЗ 2 20 км 8/3 600 м
[Cu med, cong Ac lent Ci fib]
+28.3 +16.2 48 +32 +40 душно 1013.9 997.2
12 22.07 СЗ 3 20 км 10/5 600 м
[Cb cap Ac und]
+22.8 +15.7 64 +27 +28 душно 1015.2 998.2
15 22.07 штиль 0 20 км в посл. час гроза {ливн. осадки} 10/8 600 м
[Cb cap Ac und]
+19.8 +17.6 87 +22 +22 комфорт 1016.0 998.8 +28.5 3
18 22.07 штиль 0 20 км {гроза, ливн. осадки} 10/4 600 м
[Sc diur, vesp Ac und]
+20.1 +18.0 88 +23 +23 комфорт 1015.8 998.6
21 22.07 штиль 0 20 км 10/3 600 м
[Sc Ac lent]
+20.2 +17.9 87 +23 +23 комфорт 1015.1 998.0
00 23.07 штиль 0 4000 м дымка 10/5 600 м
[Cb cap Ac und]
+19.2 +18.5 96 +21 +21 комфорт 1014.9 997.6
03 23.07 штиль 0 4000 м 10/8 600 м
[Cb cap Ac und]
+19.6 +18.8 95 +22 +22 комфорт 1013.9 996.7 +19.1 0.5
06 23.07 СВ 1 20 км гроза без осадков {ливн. осадки} 10/5 600 м
[Cb cap Ac und]
+23.4 +17.4 69 +29 +31 душно 1013.0 996.1
09 23.07 В 1 20 км {гроза} 8/3 600 м
[Cu hum Ac lent]
+25.4 +16.5 58 +29 +35 душно 1012.0 995.1
12 23.07 В 2 20 км {ливн. осадки} 10/5 600 м
[Sc diur, vesp Ac und]
+25.1 +16.3 58 +28 +30 жарко 1011.0 994.1

 

Местоположение метеостанции Зеленокумск (Ставропольский край, Россия): широта 44.43 долгота 43.88 высота над уровнем моря 148 м.

В архиве по умолчанию представлена погода в Зеленокумске за последнюю неделю. Архивные данные за месяц целиком и за предыдущие месяцы, начиная с января 2011 года, Вы можете получить, выбрав интересующий диапазон дат из раскрывающегося списка и нажав кнопку "Ввод!".


*Определитесь, кто Вы:
робот инопланетянин человек

Внимание! Время в таблицах - всемирное. Для получения местного времени необходимо прибавить поправку, которая равна 3 ч.

Смотрите также архив погоды в соседних городах и на ближайших метеорологических станциях:

Погода в Буденновске (Ставропольский край, Россия) (44 км)
Погода в Георгиевске (Ставропольский край, Россия) (48 км)
Погода в Минеральных Водах (Ставропольский край, Россия) (66 км)
Погода в Александровском (Ставропольский край, Россия) (77 км)
Погода в Прохладный (Кабардино-Балкария, Россия) (77 км)
Погода в Благодарном (Ставропольский край, Россия) (82 км)
Погода в Моздоке (Северная Осетия, Россия) (100 км)
Погода в Нальчике (Кабардино-Балкария, Россия) (102 км)
Погода в Рощино (Ставропольский край, Россия) (110 км)
Погода в Кисловодске (Ставропольский край, Россия) (110 км)

Пояснения к столбцам:

Ветер - указаны скорость ветра в м/с - средняя за 10 мин, порывы в срок и между сроками (в фигурных скобках) и направление, откуда дует ветер: С - северный, СВ - северо-восточный, В - восточный, ЮВ - юго-восточный, Ю - южный, ЮЗ - юго-западный, З - западный, СЗ - северо-западный.
Видимость - горизонтальная дальность видимости в метрах или километрах. При видимости от 1 до 10 км при отсутствии осадков обычно наблюдается дымка, при ухудшении видимости до 1 км и менее - туман. В сухую погоду видимость может ухудшаться дымом, пылью или мглою.
Явления - указаны атмосферные явления, наблюдавшиеся в срок или в последний час перед сроком; фигурными скобками обозначены явления, наблюдавшиеся между сроками (за 1-3 часа до срока); квадратными скобками обозначены град или гололедные отложения с указанием их диаметра в мм.
Облачность - указаны через наклонную черту общая и нижняя облачность в баллах и высота нижней границы облаков в метрах; квадратными скобками обозначены формы облаков: Ci - перистые, Cs - перисто-слоистые, Cc - перисто-кучевые, Ac - высококучевые, As - высокослоистые, Sc - слоисто-кучевые, Ns - слоисто-дождевые, Cu - кучевые, Cb - кучево-дождевые. Подробнее классификацию облаков см. в Атласе облаков (PDF).
T - Температура воздуха - температура, измеренная на высоте 2 м над землей.
Td - Температура точки росы - температура, при понижении до которой содержащийся в воздухе водяной пар достигнет насыщения.
f - Относительная влажность воздуха - влажноcть воздуха, измеренная на высоте 2 м над землей.
Te - Эффективная температура - температура, которую ощущает одетый по сезону человек в тени. Характеристика душности погоды. При расчете учитывается влияние влажности воздуха и скорости ветра на теплоощущения человека.
Tes - Эффективная температура на солнце - температура, которую ощущает человек, с поправкой на солнечный нагрев. Характеристика знойности погоды. Зависит от высоты солнца над горизонтом, облачности и скорости ветра. Ночью, в пасмурную погоду, а также при ветре 12 м/с и более поправка равна нулю.
P - Атмосферное давление - приведенное к уровню моря атмосферное давление.
Po - Атмосферное давление - измеренное на уровне метеостанции атмосферное давление.
Tmin - Минимальная температура - минимум температуры воздуха на высоте 2 м над землей.
Tmax - Максимальная температура - максимум температуры воздуха на высоте 2 м над землей.
R - Количество осадков - Количество выпавших осадков за период времени, мм. При наведении курсора мыши на число - период времени, за который выпало указанное количество осадков.
R24 - Количество осадков - Количество выпавших осадков за 24 часа, мм.
S - Снежный покров - Высота снежного покрова, см. При наведении курсора мыши на число - состояние снежного покрова и степень покрытия местности в баллах.